Regional Weather Roundup
Issued by NWS Wakefield, VA

Home | Current Version | Previous Version | Graphics & Text | Print | Product List | Glossary On
Versions: 1 2 3 4 5 6 7 8 9 10 11 12 13 14 15 16 17 18 19 20 21 22 23 24 25 26 27 28
000
ASUS41 KAKQ 260015
RWRAKQ

REGIONAL WEATHER ROUNDUP
NATIONAL WEATHER SERVICE WAKEFIELD VA
800 PM EDT THU AUG 25 2016

Note: "fair" indicates few or no clouds below 12,000 feet with no
significant weather and/or obstructions to visibility. * = Denotes
station may not report precipitation (e.g., rain,snow,etc.),
thunder or fog.

VAZ042-051-052>054-056-260100-
NORTHERN VIRGINIA

CITY           SKY/WX    TMP DP  RH WIND       PRES   REMARKS
WASH NATIONAL  MOCLDY    85  73  67 S9        30.02R
DULLES         MOCLDY    84  74  71 S6        30.03R
FORT BELVOIR   CLEAR     79  75  87 CALM      30.02R
QUANTICO       CLEAR     85  74  69 SW3       30.03R
FREDERICKSBRG*   N/A     82  76  81 CALM      30.02R
STAFFORD*      PTCLDY    80  75  83 CALM      30.07R
WARRENTON      CLEAR     82  72  71 CALM      30.03S
CULPEPER*      CLEAR     82  78  87 CALM      30.03F
MANASSAS*      CLEAR     82  77  83 S3        30.03R
LEESBURG*      PTCLDY    86  79  79 S3        30.03S HX  99
WINCHESTER     CLOUDY    82  73  74 S3        30.04R
FRONT ROYAL*   FAIR      81  75  83 S5        30.03S
LURAY*         FAIR      82  79  89 CALM      30.05S
$$

VAZ048-049-060>072-079>083-260100-
CENTRAL AND SOUTH CENTRAL VIRGINIA

CITY           SKY/WX    TMP DP  RH WIND       PRES   REMARKS
RICHMOND       PTCLDY    83  70  64 S5        30.04R
CHESTERFIELD*  FAIR      84  63  48 S3        30.06R
PETERSBURG*    NOT AVBL
HANOVER        CLEAR     80  72  76 CALM      30.05R
TAPPAHANNOCK*  CLEAR     82  72  69 CALM      30.05R
QUINTON*       FAIR      84  72  65 CALM      30.04R
CHARLOTTSVILLE PTCLDY    84  76  76 CALM      30.04S
GORDONSVILLE*  NOT AVBL
ORANGE*          N/A     82  79  89 CALM      30.06R
LOUISA*        CLEAR     82  81  94 CALM      30.04R HX  95
BUMPASS*       FAIR      80  77  90 CALM      30.04S
FARMVILLE*     CLEAR     83  76  79 CALM      30.04S
CREWE*         FAIR      83  73  73 S3        30.05S
FORT PICKETT*  FAIR      80  74  81 CALM      30.06S
CHASE CITY*    FAIR      83  73  69 CALM      30.07S
CLARKSVILLE*   FAIR      79  73  83 CALM      30.06S
SOUTH HILL*    CLEAR     79  75  87 CALM      30.12S
LAWRENCEVILLE* FAIR      81  73  75 CALM      30.06S
EMPORIA*       CLEAR     81  70  69 SE3       30.07S
$$

VAZ088>098-260100-
SOUTHEAST VIRGINIA

CITY           SKY/WX    TMP DP  RH WIND       PRES   REMARKS
NORFOLK        CLEAR     82  69  64 S8        30.06R
VIRGINIA BEACH PTCLDY    84  67  56 S3        30.06R
NORFOLK NAVAL  PTCLDY    82  68  62 SW5       30.07R
WEST POINT*    CLEAR     83  68  60 CALM      30.06R
SALUDA*        FAIR      80  73  78 S5        30.04S
NEWPORT NEWS   CLEAR     84  70  62 S8        30.05R
LANGLEY AFB    CLEAR     84  71  64 S10       30.05R
FORT EUSTIS    CLEAR     84  72  66 S5        30.03R
WILLIAMSBURG*  CLEAR     86  72  62 S5        30.05S
HR EXEC AP*    FAIR      81  70  69 S3        30.08S
FRANKLIN*      CLEAR     81  71  71 S3        30.07R
US460-WAKEFLD  CLEAR     81  71  71 CALM      30.05S
$$

VAZ020-022-025-037-045-260100-
WEST CENTRAL AND SOUTHWEST VIRGINIA

CITY           SKY/WX    TMP DP  RH WIND       PRES   REMARKS
STAUNTON*      PTCLDY    80  73  77 S6        30.09S
WAYNESBORO*    FAIR      82  74  76 CALM      30.10R
HOT SPRINGS VA CLEAR     75  67  78 W9        30.25S
LYNCHBURG      CLEAR     82  74  76 SW3       30.09R
DANVILLE       CLEAR     80  75  84 SW3       30.07S
SOUTH BOSTON*  FAIR      83  76  79 S3        30.06R
MARTINSVILLE   PTCLDY    77  73  86 CALM      30.13R
ROANOKE        PTCLDY    84  68  58 CALM      30.11R
BLACKSBURG     CLEAR     78  72  80 CALM      30.20S
DUBLIN*        CLEAR     82  73  73 CALM      30.18S
MARION*        CLEAR     79  72  79 SW3       30.23S
HILLSVILLE*    CLOUDY    79  71  74 NW6       30.21R
RICHLANDS*     FAIR      78  72  82 W5        30.23R
WISE*          CLEAR     81  61  50 CALM      30.23S
ABINGDON*      CLEAR     82  72  72 CALM      30.19R
$$

MDZ021>025-VAZ099-100-260100-
SOUTHERN MARYLAND AND THE DELMARVA PENINSULA

CITY           SKY/WX    TMP DP  RH WIND       PRES   REMARKS
PATUXENT RIVER PTCLDY    81  71  71 S7        30.03R
BAY BRIDGE APT CLEAR     82  73  74 S8        30.02S
LEONARDTOWN    CLEAR     81  72  74 SE3       30.05R
DOVER          CLEAR     81  72  75 S7        30.02R
GEORGETOWN     CLEAR     78  69  73 S6        30.05R
EASTON         PTCLDY    82  73  74 S7        30.07R
CAMBRIDGE      CLEAR     79  70  73 S6        30.03S
SALISBURY      CLEAR     77  68  73 S6        30.05R
OCEAN CITY     PTCLDY    79  68  69 SW10      30.06S
WALLOPS ISLAND CLEAR     78  65  63 S13       30.07R
ACCOMACK*      CLEAR     78  67  70 S7        30.06S
$$

NCZ012>017-030>032-260100-
NORTH CENTRAL AND EASTERN NORTH CAROLINA

CITY           SKY/WX    TMP DP  RH WIND       PRES   REMARKS
ROANOKE RAPIDS FAIR      79  70  73 S3        30.06S
RALEIGH        MOCLDY    84  68  58 S3        30.08R
ELIZABETH CITY CLEAR     80  69  69 SE7       30.08S
AHOSKIE*       CLEAR     77  72  85 CALM      30.07S
EDENTON*       CLEAR     83  68  61 S8        30.08S
CURRITUCK*       N/A     80  68  68 S3        30.08S
KILL DEVIL HLS CLEAR     77  68  72 SE5       30.09R
MANTEO         CLEAR     78  67  69 S5        30.10S
CAPE HATTERAS  CLEAR     76  68  76 CALM      30.11R
TARBORO*       FAIR      79  75  89 CALM      30.08R
GOLDSBORO      CLEAR     84  71  64 S3        30.06S
WASHINGTON     CLEAR     80  70  72 SE3       30.08S
GREENVILLE     CLEAR     79  73  83 CALM      30.09S
NEW BERN       CLEAR     78  69  73 S6        30.10S
WILMINGTON     CLEAR     80  66  62 SE5       30.09R
$$

VAZ048-260100-
ELSEWHERE

CITY           SKY/WX    TMP DP  RH WIND       PRES   REMARKS
HARRISBURG PA  PTCLDY    81  77  88 CALM      29.99R
BALTIMORE      PTCLDY    82  73  74 S3        30.01R
ANNAPOLIS      CLEAR     83  75  77 S7        30.02R
ANDREWS AFB    CLEAR     82  73  74 SW7       30.03R
PHILADELPHIA   MOCLDY    83  71  67 SW12      30.02S
HENDERSON NC   CLEAR     78  70  75 CALM      30.08R
GREENSBORO     MOCLDY    82  72  71 NW5       30.09S
ROCKY MOUNT    CLEAR     79  73  82 CALM      30.07S
$$

VAZ100-260100-
MARINE

STATION/POSITION TIME  TEMP    WIND        PRES    WAVE   SWELL
                       AIR SEA DIR/SP/G            HT/PER HT/PER
                 (UTC) (F)     (DEG/KT/KT) (MB)    (FT/S) (FT/S)
BRANDYWINE LGT   2300   76                   N/A
CAPE MAY NJ      2300   76 74              1016.6F
LEWES DE         2300   82 74              1016.9F
OCEAN-CITY-INLET 2300   76 74              1018.2S
WACHAPREAGUE VA  2300   80 84              1017.9F
THOMAS POINT MD  0000   82 81  170/ 15/ 16 1017.7R
GOOSES REEF MD   2300   84 83  170/ 14/ 16 1017.1F   2/ 3
COVE POINT MD    2300   82                 1017.2F
SOLOMONS ISLAND  2300   85 84                N/A
BISHOPS HEAD MD  2300   83 83              1017.4F
PINEY POINT MD   2300          190/  6/  7   N/A
POTOMAC MD       2300   83 83  190/ 14/ 17 1016.1F   2/ 3
CAMBRIDGE MD     2300   83 83              1016.1F
LEWISETTA VA     2300   84 83              1016.5F
RAPPAHANNOCK LGT 2300                      1018.0F
STINGRAY PT      2300   82 83  110/ 14/ 17 1017.7F   2/ 3
YORK RVR RNG VA  2300   83                 1016.8F
YORKTOWN VA      2300   87 83              1016.8F
JAMESTOWN VA     2300   87 85  190/  6/  8   N/A     0
DOMINION TERM VA 2300   85                 1017.6F
KIPTOPEKE VA     2300      79                N/A
CHES BAY BRIDGE  2300   81 76              1017.6F
CAPE HENRY VA    2300   79                   N/A
WILLOUBY STN VA  2300   86                   N/A
CAPE HENRY BUOY  2312      79                N/A     3/10
1ST LANDING BUOY 2300   80 78  160/ 12/ 14 1017.4F   1/ 3
CAPE CHARLES BUO 2326      78                N/A     3/ 9
OFFSHORE WE BUOY 2321      80                N/A     3/10
64NM E OF VA BCH 2350   80 82  180/  8/ 12 1018.9S   2/ 9   2/ 9
DUCK PIER NC     2300   80 80              1018.2F
44100 DUCK FRF   2305      80                N/A     2/10
44056 DUCK FRF   2311      77                N/A     2/10
OREGON INLET NC  2300   80 81              1019.0S
HATTERAS NC      2300   82 81              1019.0R
DIAMOND SHLS NC  2350   81 84  100/  4/  6 1019.5R   3/ 9   3/ 9
CAPE LOOKOUT NC  0000   81     120/  7/  8 1019.0R
$$




USA.gov is the U.S. government's official web portal to all federal, state and local government web resources and services.